Volver al catálogo

JILIN-1 GAOFEN 07A 02 XING

ActivoCienciaSSO
NORAD 68691·PAYLOAD·🇨🇳 China
Este nombre de satélite aún no ha sido confirmado por fuentes oficiales.

Lanzado Apr 14, 2026 desde Jiuquan Satellite Launch Center

Loading…

Próximos Pases (próximas 24 horas)

TLE

ActualizadoSource: Space-Track

Época: Sep 14, 2026, 13:01 UTC

1 68691U 26080A   26257.54238157  .00003910  00000-0  25235-3 0  9996
2 68691  97.6557 332.8850 0014828 124.6252 235.6377 15.08777441 23131

Sigue JILIN-1 GAOFEN 07A 02 XING en tiempo real con AllMySat

Download on the App Store